Regional Weather Roundup
Issued by NWS Goodland, KS

Home | Current Version | Previous Version | Graphics & Text | Print | Product List | Glossary On
Versions: 1 2 3 4 5 6 7 8 9 10 11 12 13 14 15 16 17 18 19 20 21 22 23 24 25 26 27 28 29 30 31 32 33 34 35 36 37 38 39 40 41 42 43 44 45 46 47 48 49 50
000
ASUS43 KGLD 100708
RWRGLD

GOODLAND FORECAST AREA HOURLY WEATHER ROUNDUP
NATIONAL WEATHER SERVICE GOODLAND KS
1200 AM MST SUN DEC 10 2017

...OFFICIAL OBSERVATIONS...

CITY           SKY/WX    TMP DP  RH WIND       PRES   REMARKS
GOODLAND KS    CLEAR     34   7  32 W14       30.31S
HILL CITY KS   CLEAR     42  14  32 W13       30.23S
IMPERIAL NEB   CLEAR     41  11  29 W14       30.27S
MCCOOK NEB     CLEAR     40  14  34 NW17      30.22F
AKRON CO       CLOUDY    29   4  34 W15       30.36S WCI  18
BURLINGTON CO  CLEAR     32   6  33 W10       30.35S
LIMON CO       CLOUDY    25   1  35 W7        30.41S
$$

...UNOFFICIAL OBSERVATIONS...

CITY           SKY/WX    TMP DP  RH WIND       PRES   REMARKS
COLBY KS       CLEAR     36  14  41 W14       30.29S
LENORA KS        N/A     40  32  73 W9          N/A
NORTON KS      CLEAR     39   7  26 W15       30.20
SHARON SPRINGS   N/A     32  10  40 W9          N/A
TRENTON NEB      N/A     41  32  70 NW12        N/A
KIT CARSON CO    N/A     40   6  24 MISG        N/A
YUMA CO        FAIR      34   5  29 W15       30.34S
$$




USA.gov is the U.S. government's official web portal to all federal, state and local government web resources and services.